Content
SEND FEEDBACK

Daily
Averages
Monthly
Summary
India

CALCUTTA, INDIA


Home > Asia > India
Elevation: 6 meters     Latitude: 22 39N     Longitude: 088 27E

WEATHER
 
SELECT A DAY
Number of Records: 227,287;   Date Range: 7/1/96 - 7/27/14
 
SHARE

PRINT THIS DATA

[ ← Previous Day ]
WEATHER ALMANAC - 24 JUNE, 2013
[ Next Day → ]
[ °F ]   °C
We're sorry. There is no daily almanac available for Calcutta, India on 24 June, 2013.
WEATHER BY HOUR - 24 JUNE, 2013
[ °F ]   °C
Local TimeTemperatureDewpointHumidityBarometerVisibilityWind DirectionWind SpeedGust SpeedPrecipitationEventsConditions
12:50 AM27 °C26 °C94 %996.3 hPa3.1 kmEast (100°)7.4 km/hHaze
1:20 AM27 °C26 °C94 %996.3 hPa3.1 kmENE (60°)9.3 km/hHaze
1:50 AM27 °C26 °C94 %996.3 hPa3.1 kmENE (60°)9.3 km/hHaze
2:20 AM27 °C26 °C94 %995.3 hPa3.1 kmENE (60°)9.3 km/hHaze
2:30 AM27.2 °C26.7 °C95 %996.3 hPa1.6 kmCalmHaze
2:50 AM27 °C26 °C94 %995.3 hPa3.1 kmENE (60°)9.3 km/hHaze
3:20 AM27 °C26 °C94 %995.3 hPa3.1 kmENE (60°)11.1 km/hHaze
3:50 AM27 °C26 °C94 %995.3 hPa3.1 kmENE (70°)9.3 km/hHaze
4:20 AM27 °C26 °C94 %995.3 hPa3.1 kmEast (80°)11.1 km/hHaze
4:50 AM27 °C26 °C94 %995.3 hPa3.1 kmEast (80°)11.1 km/hHaze
5:20 AM27 °C26 °C94 %996.3 hPa2.6 kmENE (70°)9.3 km/hHaze
5:30 AM27.2 °C26.7 °C97 %996.3 hPa1.6 kmEast (90°)3.7 km/hHaze
5:50 AM27 °C26 °C94 %995.3 hPa2.6 kmEast (80°)11.1 km/hHaze
6:20 AM27 °C26 °C94 %996.3 hPa2.6 kmEast (80°)11.1 km/hHaze
6:50 AM28 °C26 °C89 %997 hPa2.6 kmEast (80°)11.1 km/hHaze
7:20 AM28 °C26 °C89 %997 hPa2.6 kmEast (90°)13 km/hHaze
8:20 AM29 °C26 °C84 %996.3 hPa3.1 kmEast (90°)16.7 km/hHaze
8:30 AM30.6 °C26.7 °C74 %997.3 hPa1.6 kmEast (90°)5.6 km/hHaze
8:50 AM30 °C26 °C79 %996.3 hPaEast (90°)18.5 km/hHaze
9:20 AM30 °C26 °C79 %996.3 hPaEast (90°)16.7 km/hHaze
9:50 AM30 °C26 °C79 %996.3 hPaESE (110°)22.2 km/hHaze
10:20 AM29 °C26 °C84 %996.3 hPa2.3 kmESE (120°)22.2 km/hRainLight Rain
11:20 AM29 °C26 °C84 %996.3 hPa3.1 kmEast (100°)18.5 km/hHaze
11:30 AM30 °C27.8 °C85 %997.3 hPa1.6 kmEast (90°)5.6 km/hRainLight Rain
12:20 PM31 °C27 °C79 %996.3 hPa3.5 kmESE (120°)18.5 km/hHaze
1:20 PM29 °C27 °C89 %996.3 hPa2.6 kmESE (120°)14.8 km/hRain-ThunderstormLight Thunderstorms and Rain
1:50 PM28 °C27 °C94 %995.3 hPa1.9 kmSE (140°)13 km/hRain-ThunderstormLight Thunderstorms and Rain
2:20 PM29 °C27 °C89 %995.3 hPa2.6 kmSSE (150°)22.2 km/hThunderstormThunderstorm
2:30 PM30.6 °C28.9 °C88 %995.6 hPa1.6 kmSouth (180°)5.6 km/hThunderstormThunderstorm
3:20 PM31 °C27 °C79 %994.2 hPa2.7 kmSSE (150°)18.5 km/hThunderstormThunderstorm
3:50 PM29 °C28 °C94 %994.2 hPa2.7 kmSE (130°)13 km/hRain-ThunderstormLight Thunderstorms and Rain
4:20 PM29 °C28 °C94 %994.2 hPa2.7 kmSE (130°)11.1 km/hRain-ThunderstormLight Thunderstorms and Rain
4:50 PM29 °C28 °C94 %994.2 hPa2.7 kmSSE (150°)9.3 km/hThunderstormThunderstorm
5:20 PM29 °C27 °C89 %994.2 hPa2.7 kmSE (130°)11.1 km/hThunderstormThunderstorm
5:50 PM29 °C27 °C89 %994.2 hPa2.6 kmEast (90°)13 km/hThunderstormThunderstorm
6:20 PM28 °C27 °C94 %995.3 hPa2.6 kmSE (130°)11.1 km/hRain-ThunderstormLight Thunderstorms and Rain
6:50 PM28 °C27 °C94 %996.3 hPa2.6 kmSE (140°)9.3 km/hRain-ThunderstormLight Thunderstorms and Rain
7:20 PM28 °C27 °C94 %997 hPa2.6 kmSSE (150°)9.3 km/hRain-ThunderstormLight Thunderstorms and Rain
7:50 PM28 °C27 °C94 %997 hPa2.7 kmSSE (160°)7.4 km/hThunderstormThunderstorm
8:20 PM28 °C27 °C94 %997 hPa2.7 kmSSE (160°)7.4 km/hThunderstormThunderstorm
8:30 PM28.3 °C26.7 °C88 %998 hPa1.6 kmCalmHaze
8:50 PM28 °C26 °C89 %996.3 hPa2.7 kmSSE (150°)5.6 km/hThunderstormThunderstorm
9:20 PM28 °C26 °C89 %997 hPa2.7 kmSE (140°)7.4 km/hHaze
9:50 PM28 °C26 °C89 %998 hPa2.7 kmSE (140°)9.3 km/hHaze
10:20 PM28 °C26 °C89 %998 hPa2.7 kmSE (140°)11.1 km/hHaze
10:50 PM28 °C26 °C89 %998 hPa2.7 kmSSE (150°)9.3 km/hHaze
11:20 PM28 °C26 °C89 %997 hPa2.7 kmSSE (160°)7.4 km/hHaze
11:30 PM27.8 °C26.7 °C91 %998.3 hPa1.6 kmCalmHaze
11:50 PM28 °C26 °C89 %997 hPa2.7 kmESE (110°)11.1 km/hHaze
Hourly data recorded from VECC, located 0 kilometers away from Calcutta, India







STORIES FROM OUR PARTNERS